Location: ????????
(55.6333°N, 37.7000°E)
Time: 07:56:42
(UTC+00:00)

BREEZE-M DEB (TANK) - Pass Details

Date: 19 May 2025
Orbit: 282 x 12171 km, 49.5° (Epoch: 22 June)

Event Time Altitude Azimuth Distance (km) Brightness Sun altitude
Rises 20:36:52 0° 281° (W) 8,339 8.6 -13.7°
Reaches altitude 10° 20:44:49 10° 277° (W) 5,430 7.6 -13.9°
Maximum altitude 20:55:23 38° 216° (SW) 1,482 4.1 -14.1°
Enters shadow 20:57:51 22° 161° (SSE) 1,533 4.0 -14.2°
